Flag for Malaysia Weather past 2 weeks in Johor Bahru, Malaysia

Now
86 °F

Passing clouds.


Feels Like: 95 °F
Forecast: 78 / 90 °F
Wind: 3 mph from East

Location: Singapore / Paya Lebar

Current Time: Apr 19, 2015 at 8:39:46 PM

Latest Report: Apr 19, 2015 at 8:00 PM


Visibility: N/A

Pressure: 29.77 "Hg

Humidity: 70%

Dew point: 75 °F

Location of Johor BahruLocation

Historic Weather in Johor Bahru — Graph

°F

Johor Bahru temperature yesterday

Maximum temperature yesterday: 91 °F (at 1:00 PM)
Minimum temperature yesterday: 81 °F (at 7:00 AM)
Average temperature yesterday: 87 °F

Past Weeks' High & Low Weather Summary

 TemperatureHumidityPressure
High95 °F (Apr 12, 2:00 PM)94% (Apr 10, 7:00 AM)29.95 "Hg (Apr 10, 7:00 AM)
Low77 °F (Apr 19, 7:00 AM)47% (Apr 14, 4:00 PM)29.68 "Hg (Apr 4, 7:00 PM)
Average86 °F72%29.81 "Hg
* Reported Apr 4 7:00 PM — Apr 19 7:00 PM, Johor Bahru, Weather by CustomWeather, © 2015

Note: Actual official high and low records may vary slightly from our data, if they occured in-between our weather recording intervals... More about our weather records

Advertising

Johor Bahru weather history for previous 24 hours

 ConditionsComfort  
Time TempWeatherWind HumidityBarometerVisibility
7:00 PM
Sun, Apr 19
86 °FBroken clouds.5 mph66%29.80 "HgN/A
6:00 PM86 °FScattered clouds.3 mph66%29.77 "HgN/A
5:00 PM84 °FScattered showers. Partly sunny.9 mph70%29.77 "HgN/A
4:00 PM88 °FThunderstorms. Scattered clouds.6 mph66%29.77 "HgN/A
3:00 PM90 °FThundershowers. Partly sunny.13 mph59%29.77 "HgN/A
2:00 PM90 °FPartly sunny.13 mph63%29.80 "HgN/A
1:00 PM93 °FPartly sunny.6 mph56%29.83 "HgN/A
12:00 PM90 °FPartly sunny.7 mph67%29.86 "HgN/A
11:00 AM86 °FPartly sunny.1 mph75%29.86 "HgN/A
10:00 AM84 °FPartly sunny.6 mph79%29.86 "HgN/A
9:00 AM79 °FPartly sunny.6 mph89%29.86 "HgN/A
8:00 AM77 °FThunderstorms. Partly sunny.5 mph94%29.83 "Hg6 mi
7:00 AM77 °FThunderstorms. Scattered clouds.9 mph89%29.80 "Hg4 mi
6:00 AM81 °FThunderstorms. Passing clouds.10 mph84%29.80 "Hg5 mi
5:00 AM82 °FPassing clouds.No wind84%29.80 "HgN/A
11:00 PM
Sat, Apr 18
84 °FPassing clouds.6 mph79%29.83 "HgN/A
10:00 PM84 °FPassing clouds.5 mph79%29.80 "HgN/A
9:00 PM86 °FPassing clouds.5 mph75%29.77 "HgN/A
8:00 PM86 °FPassing clouds.8 mph70%29.77 "HgN/A
Weather by CustomWeather, © 2015

See weather overviewHow to use our weather pages